EW7930 Weather Reports


Display with metric or nautical units.
time (UTC)temp
F
wind
direction
speed
MPH
gust
MPH
rain 1hr
in
rain 24hr
in
rain mn
in
humidity
%
barometer
mb
20260508003008 69 255 3.0 14.0 0.00 0.00 0.00 9 1008.5
20260508001605 70 269 8.0 14.0 0.00 0.00 0.00 9 1008.6
20260508000004 71 283 5.0 12.0 0.00 0.00 0.00 10 1008.6
20260507234503 70 250 4.0 10.0 0.00 0.00 0.00 10 1008.7
20260507233002 70 264 4.0 14.0 0.00 0.00 0.00 11 1009.1
20260507231600 70 234 8.0 16.0 0.00 0.00 0.00 12 1009.2
20260507230059 71 295 5.0 14.0 0.00 0.00 0.00 12 1009.4
20260507224559 71 271 8.0 18.0 0.00 0.00 0.00 13 1009.4
20260507223056 71 277 7.0 21.0 0.00 0.00 0.00 14 1009.6
20260507221554 71 311 9.0 14.0 0.00 0.00 0.00 16 1009.7
20260507220052 71 283 8.0 12.0 0.00 0.00 0.00 16 1010.0
20260507214551 71 293 6.0 16.0 0.00 0.00 0.00 16 1010.1
20260507213049 71 269 9.0 18.0 0.00 0.00 0.00 16 1010.4
20260507211552 70 286 7.0 17.0 0.00 0.00 0.00 17 1010.8
20260507210044 70 321 8.0 18.0 0.00 0.00 0.00 16 1011.1
20260507204541 72 223 5.0 13.0 0.00 0.00 0.00 16 1011.4
20260507203040 70 284 6.0 20.0 0.00 0.00 0.00 14 1011.8
20260507201542 71 314 7.0 15.0 0.00 0.00 0.00 10 1012.0
20260507200035 70 233 9.0 16.0 0.00 0.00 0.00 10 1012.2
20260507194535 70 295 7.0 15.0 0.00 0.00 0.00 11 1012.4
20260507193035 70 310 6.0 18.0 0.00 0.00 0.00 12 1012.5
20260507191529 68 264 8.0 17.0 0.00 0.00 0.00 11 1012.8
20260507190028 68 322 9.0 17.0 0.00 0.00 0.00 12 1012.8
20260507184525 68 309 8.0 18.0 0.00 0.00 0.00 13 1013.0
20260507183039 67 323 10.0 17.0 0.00 0.00 0.00 14 1013.1
20260507181519 65 318 9.0 21.0 0.00 0.00 0.00 17 1013.4
20260507180018 65 324 9.0 18.0 0.00 0.00 0.00 18 1013.7
20260507174515 63 327 12.0 21.0 0.00 0.00 0.00 18 1013.9
20260507173009 62 336 10.0 18.0 0.00 0.00 0.00 23 1014.1
20260507171505 60 308 10.0 18.0 0.00 0.00 0.00 27 1014.3
20260507170100 59 334 8.0 19.0 0.00 0.00 0.00 31 1014.6
20260507170000 59 293 7.0 19.0 0.00 0.00 0.00 32 1014.5
20260507164557 56 337 12.0 20.0 0.00 0.00 0.00 33 1014.6
20260507163053 55 274 8.0 15.0 0.00 0.00 0.00 36 1014.8
20260507161550 54 327 9.0 16.0 0.00 0.00 0.00 38 1015.2
20260507160052 53 342 7.0 14.0 0.00 0.00 0.00 41 1015.2
20260507154542 52 337 8.0 16.0 0.00 0.00 0.00 42 1015.4
20260507153043 52 352 8.0 15.0 0.00 0.00 0.00 43 1015.4
20260507151534 51 327 6.0 11.0 0.00 0.00 0.00 45 1015.5
20260507150030 50 322 5.0 10.0 0.00 0.00 0.00 49 1015.8
20260507144532 48 314 4.0 9.0 0.00 0.00 0.00 55 1016.0
20260507143021 47 339 5.0 10.0 0.00 0.00 0.00 59 1016.0
20260507141520 46 311 4.0 7.0 0.00 0.00 0.00 63 1016.2
20260507140012 44 317 2.0 6.0 0.00 0.00 0.00 68 1016.4
20260507134508 42 341 4.0 8.0 0.00 0.00 0.00 73 1016.3
20260507133004 40 350 3.0 7.0 0.00 0.00 0.00 78 1016.3
20260507131501 37 338 3.0 5.0 0.00 0.00 0.00 83 1016.5
20260507130108 36 21 3.0 6.0 0.00 0.00 0.00 86 1016.5
20260507124631 34 338 1.0 3.0 0.00 0.00 0.00 90 1016.4
20260507123050 32 53 2.0 3.0 0.00 0.00 0.00 91 1016.4
20260507121550 30 65 1.0 3.0 0.00 0.00 0.00 91 1016.4
20260507120048 29 58 2.0 4.0 0.00 0.00 0.00 91 1016.5
20260507114605 30 46 1.0 4.0 0.00 0.00 0.00 90 1016.4
20260507113044 30 95 2.0 5.0 0.00 0.00 0.00 91 1016.3
20260507111543 30 101 2.0 4.0 0.00 0.00 0.00 91 1016.3
20260507110045 31 94 3.0 5.0 0.00 0.00 0.00 91 1016.4
20260507104547 31 95 2.0 3.0 0.00 0.00 0.00 91 1016.4
20260507103036 31 108 2.0 4.0 0.00 0.00 0.00 90 1016.5
20260507101534 32 107 2.0 5.0 0.00 0.00 0.00 90 1016.5
20260507100036 32 126 2.0 5.0 0.00 0.00 0.00 89 1016.2
20260507094531 32 117 3.0 5.0 0.00 0.00 0.00 88 1016.3
20260507093036 32 141 3.0 5.0 0.00 0.00 0.00 87 1016.2
20260507091537 32 117 2.0 6.0 0.00 0.00 0.00 86 1016.2
20260507090024 32 150 2.0 4.0 0.00 0.00 0.00 85 1016.3
20260507084525 33 110 2.0 4.0 0.00 0.00 0.00 84 1016.2
20260507083018 34 178 2.0 4.0 0.00 0.00 0.00 81 1016.2
20260507081519 35 157 1.0 3.0 0.00 0.00 0.00 78 1016.0
20260507080013 36 51 3.0 5.0 0.00 0.00 0.00 80 1015.9
20260507074510 36 98 2.0 6.0 0.00 0.00 0.00 79 1015.6
20260507073007 37 119 3.0 7.0 0.00 0.00 0.00 78 1015.7
20260507071507 37 74 4.0 7.0 0.00 0.00 0.00 78 1015.4
20260507070002 37 86 3.0 6.0 0.00 0.00 0.00 77 1015.3
20260507064610 37 101 3.0 6.0 0.00 0.00 0.00 74 1015.2
20260507063059 38 117 3.0 7.0 0.00 0.00 0.00 72 1015.0
20260507061552 39 94 3.0 9.0 0.00 0.00 0.00 68 1014.8
20260507060048 39 84 3.0 8.0 0.00 0.00 0.00 62 1014.6
20260507054548 39 94 5.0 9.0 0.00 0.00 0.00 60 1014.3
20260507053044 39 82 4.0 7.0 0.00 0.00 0.00 59 1014.0
20260507051543 39 117 2.0 4.0 0.00 0.00 0.00 57 1013.9
20260507050041 41 76 1.0 3.0 0.00 0.00 0.00 57 1013.8
20260507044543 40 74 2.0 4.0 0.00 0.01 0.00 56 1013.6
20260507043040 42 117 0.0 2.0 0.00 0.01 0.00 55 1013.4
20260507041538 43 89 1.0 3.0 0.00 0.01 0.00 51 1013.4
20260507040035 45 39 1.0 4.0 0.00 0.01 0.00 48 1012.9
20260507034538 46 238 2.0 5.0 0.00 0.02 0.00 47 1012.7
20260507033033 45 46 0.0 2.0 0.00 0.02 0.00 49 1012.5
20260507031530 46 269 1.0 3.0 0.00 0.02 0.00 47 1012.1
20260507030028 47 290 2.0 4.0 0.00 0.02 0.00 47 1011.9
20260507024527 48 303 1.0 5.0 0.00 0.03 0.00 44 1011.7
20260507023025 51 295 3.0 7.0 0.00 0.03 0.00 40 1011.3
20260507021523 52 316 5.0 13.0 0.00 0.03 0.00 38 1011.0
20260507020030 53 276 7.0 15.0 0.00 0.03 0.00 37 1010.8
20260507014519 54 271 7.0 17.0 0.00 0.03 0.00 37 1010.6
20260507013036 54 288 7.0 16.0 0.00 0.03 0.00 36 1010.4
20260507011517 55 271 9.0 24.0 0.00 0.03 0.00 36 1010.3
20260507010014 56 316 8.0 19.0 0.00 0.03 0.00 35 1009.6
20260507004514 56 295 8.0 17.0 0.00 0.03 0.00 36 1009.0